| time (UTC) | temp F | wind direction | speed MPH | gust MPH | rain 1hr in | rain 24hr in | rain mn in | humidity % | barometer mb |
| 20260505004005 | 87 | 216 | 0.0 | 2.0 | 0.00 | 0.00 | 0.00 | 24 | 1006.4 |
| 20260505003504 | 87 | 216 | 1.0 | 3.0 | 0.00 | 0.00 | 0.00 | 23 | 1006.5 |
| 20260505003005 | 86 | 201 | 1.0 | 4.0 | 0.00 | 0.00 | 0.00 | 24 | 1006.5 |
| 20260505001505 | 87 | 83 | 1.0 | 4.0 | 0.00 | 0.00 | 0.00 | 24 | 1006.5 |
| 20260505001006 | 87 | 95 | 1.0 | 3.0 | 0.00 | 0.00 | 0.00 | 23 | 1006.4 |
| 20260505000504 | 87 | 78 | 0.0 | 3.0 | 0.00 | 0.00 | 0.00 | 23 | 1006.5 |
| 20260504235504 | 87 | 238 | 1.0 | 2.0 | 0.00 | 0.00 | 0.00 | 23 | 1006.4 |
| 20260504235005 | 87 | 244 | 1.0 | 2.0 | 0.00 | 0.00 | 0.00 | 22 | 1006.5 |
| 20260504234004 | 87 | 230 | 1.0 | 4.0 | 0.00 | 0.00 | 0.00 | 23 | 1006.5 |
| 20260504233505 | 87 | 224 | 1.0 | 4.0 | 0.00 | 0.00 | 0.00 | 23 | 1006.5 |
| 20260504233004 | 87 | 241 | 1.0 | 5.0 | 0.00 | 0.00 | 0.00 | 23 | 1006.5 |
| 20260504232505 | 88 | 243 | 2.0 | 5.0 | 0.00 | 0.00 | 0.00 | 23 | 1006.7 |
| 20260504232004 | 88 | 257 | 1.0 | 3.0 | 0.00 | 0.00 | 0.00 | 24 | 1006.6 |
| 20260504231505 | 87 | 313 | 1.0 | 4.0 | 0.00 | 0.00 | 0.00 | 24 | 1006.6 |
| 20260504231004 | 87 | 66 | 2.0 | 6.0 | 0.00 | 0.00 | 0.00 | 24 | 1006.7 |
| 20260504230504 | 87 | 89 | 2.0 | 6.0 | 0.00 | 0.00 | 0.00 | 22 | 1006.7 |
| 20260504230005 | 87 | 229 | 1.0 | 4.0 | 0.00 | 0.00 | 0.00 | 22 | 1006.8 |
| 20260504225504 | 88 | 264 | 1.0 | 4.0 | 0.00 | 0.00 | 0.00 | 23 | 1006.8 |
| 20260504224504 | 88 | 93 | 1.0 | 5.0 | 0.00 | 0.00 | 0.00 | 22 | 1007.0 |
| 20260504223505 | 88 | 164 | 2.0 | 5.0 | 0.00 | 0.00 | 0.00 | 23 | 1006.9 |
| 20260504223005 | 87 | 185 | 1.0 | 5.0 | 0.00 | 0.00 | 0.00 | 23 | 1007.0 |
| 20260504222504 | 86 | 61 | 3.0 | 7.0 | 0.00 | 0.00 | 0.00 | 24 | 1007.1 |
| 20260504222004 | 86 | 59 | 4.0 | 7.0 | 0.00 | 0.00 | 0.00 | 22 | 1007.2 |
| 20260504221505 | 87 | 60 | 1.0 | 6.0 | 0.00 | 0.00 | 0.00 | 22 | 1007.3 |
| 20260504221004 | 87 | 75 | 1.0 | 3.0 | 0.00 | 0.00 | 0.00 | 23 | 1007.3 |
| 20260504220504 | 87 | 68 | 1.0 | 6.0 | 0.00 | 0.00 | 0.00 | 22 | 1007.4 |
| 20260504220004 | 87 | 60 | 2.0 | 6.0 | 0.00 | 0.00 | 0.00 | 22 | 1007.5 |
| 20260504215504 | 87 | 61 | 2.0 | 5.0 | 0.00 | 0.00 | 0.00 | 23 | 1007.6 |
| 20260504215005 | 88 | 104 | 2.0 | 5.0 | 0.00 | 0.00 | 0.00 | 21 | 1007.7 |
| 20260504214504 | 91 | 204 | 2.0 | 6.0 | 0.00 | 0.00 | 0.00 | 20 | 1007.7 |
| 20260504214005 | 90 | 203 | 3.0 | 9.0 | 0.00 | 0.00 | 0.00 | 21 | 1007.8 |
| 20260504213504 | 90 | 201 | 2.0 | 9.0 | 0.00 | 0.00 | 0.00 | 21 | 1007.8 |
| 20260504213005 | 89 | 315 | 1.0 | 3.0 | 0.00 | 0.00 | 0.00 | 22 | 1008.0 |
| 20260504212505 | 87 | 328 | 1.0 | 3.0 | 0.00 | 0.00 | 0.00 | 21 | 1008.0 |
| 20260504212004 | 88 | 288 | 1.0 | 5.0 | 0.00 | 0.00 | 0.00 | 22 | 1008.1 |
| 20260504211505 | 90 | 195 | 1.0 | 6.0 | 0.00 | 0.00 | 0.00 | 21 | 1008.1 |
| 20260504211005 | 91 | 174 | 1.0 | 6.0 | 0.00 | 0.00 | 0.00 | 20 | 1008.2 |
| 20260504210504 | 91 | 186 | 2.0 | 7.0 | 0.00 | 0.00 | 0.00 | 21 | 1008.3 |
| 20260504210005 | 90 | 218 | 2.0 | 7.0 | 0.00 | 0.00 | 0.00 | 22 | 1008.3 |
| 20260504205504 | 89 | 257 | 1.0 | 5.0 | 0.00 | 0.00 | 0.00 | 22 | 1008.3 |
| 20260504205004 | 90 | 250 | 1.0 | 5.0 | 0.00 | 0.00 | 0.00 | 21 | 1008.3 |
| 20260504204004 | 90 | 196 | 2.0 | 9.0 | 0.00 | 0.00 | 0.00 | 24 | 1008.4 |
| 20260504203004 | 89 | 201 | 2.0 | 10.0 | 0.00 | 0.00 | 0.00 | 23 | 1008.5 |
| 20260504202004 | 88 | 225 | 1.0 | 5.0 | 0.00 | 0.00 | 0.00 | 23 | 1008.7 |
| 20260504201505 | 90 | 221 | 1.0 | 5.0 | 0.00 | 0.00 | 0.00 | 20 | 1008.8 |
| 20260504201004 | 89 | 229 | 2.0 | 4.0 | 0.00 | 0.00 | 0.00 | 22 | 1008.8 |
| 20260504200504 | 87 | 194 | 2.0 | 7.0 | 0.00 | 0.00 | 0.00 | 22 | 1008.8 |
| 20260504200004 | 86 | 72 | 2.0 | 7.0 | 0.00 | 0.00 | 0.00 | 22 | 1008.9 |
| 20260504195003 | 86 | 58 | 1.0 | 2.0 | 0.00 | 0.00 | 0.00 | 24 | 1009.0 |
| 20260504194504 | 86 | 62 | 1.0 | 4.0 | 0.00 | 0.00 | 0.00 | 23 | 1009.0 |
| 20260504194004 | 86 | 36 | 1.0 | 4.0 | 0.00 | 0.00 | 0.00 | 24 | 1009.1 |
| 20260504193505 | 88 | 249 | 1.0 | 3.0 | 0.00 | 0.00 | 0.00 | 21 | 1009.2 |
| 20260504193005 | 90 | 234 | 1.0 | 3.0 | 0.00 | 0.00 | 0.00 | 22 | 1009.3 |
| 20260504192504 | 89 | 224 | 2.0 | 7.0 | 0.00 | 0.00 | 0.00 | 23 | 1009.4 |
| 20260504192004 | 88 | 208 | 1.0 | 7.0 | 0.00 | 0.00 | 0.00 | 22 | 1009.4 |
| 20260504191505 | 89 | 172 | 1.0 | 4.0 | 0.00 | 0.00 | 0.00 | 24 | 1009.5 |
| 20260504191004 | 87 | 232 | 1.0 | 3.0 | 0.00 | 0.00 | 0.00 | 23 | 1009.6 |
| 20260504190504 | 86 | 224 | 1.0 | 4.0 | 0.00 | 0.00 | 0.00 | 24 | 1009.6 |
| 20260504190004 | 87 | 220 | 1.0 | 4.0 | 0.00 | 0.00 | 0.00 | 24 | 1009.7 |
| 20260504184504 | 87 | 238 | 1.0 | 3.0 | 0.00 | 0.00 | 0.00 | 22 | 1009.8 |
| 20260504184004 | 88 | 210 | 2.0 | 6.0 | 0.00 | 0.00 | 0.00 | 24 | 1009.9 |
| 20260504183503 | 86 | 203 | 2.0 | 6.0 | 0.00 | 0.00 | 0.00 | 24 | 1009.9 |
| 20260504183004 | 86 | 190 | 0.0 | 3.0 | 0.00 | 0.00 | 0.00 | 24 | 1009.9 |
| 20260504182503 | 83 | 285 | 1.0 | 4.0 | 0.00 | 0.00 | 0.00 | 25 | 1009.9 |
| 20260504182004 | 82 | 344 | 2.0 | 5.0 | 0.00 | 0.00 | 0.00 | 26 | 1009.9 |
| 20260504181504 | 82 | 22 | 1.0 | 5.0 | 0.00 | 0.00 | 0.00 | 26 | 1010.0 |
| 20260504181004 | 83 | 343 | 0.0 | 3.0 | 0.00 | 0.00 | 0.00 | 28 | 1010.0 |
| 20260504180504 | 82 | 26 | 0.0 | 2.0 | 0.00 | 0.00 | 0.00 | 29 | 1010.0 |
| 20260504180004 | 81 | 13 | 1.0 | 5.0 | 0.00 | 0.00 | 0.00 | 30 | 1010.0 |
| 20260504175004 | 80 | 79 | 1.0 | 5.0 | 0.00 | 0.00 | 0.00 | 30 | 1010.1 |
| 20260504174504 | 79 | 20 | 1.0 | 5.0 | 0.00 | 0.00 | 0.00 | 30 | 1010.1 |
| 20260504173504 | 79 | 352 | 1.0 | 3.0 | 0.00 | 0.00 | 0.00 | 32 | 1010.1 |
| 20260504173004 | 78 | 350 | 1.0 | 4.0 | 0.00 | 0.00 | 0.00 | 31 | 1010.1 |
| 20260504172504 | 77 | 336 | 1.0 | 4.0 | 0.00 | 0.00 | 0.00 | 34 | 1010.2 |
| 20260504172003 | 77 | 326 | 2.0 | 5.0 | 0.00 | 0.00 | 0.00 | 32 | 1010.2 |
| 20260504171504 | 76 | 342 | 1.0 | 5.0 | 0.00 | 0.00 | 0.00 | 32 | 1010.3 |
| 20260504170504 | 75 | 5 | 2.0 | 6.0 | 0.00 | 0.00 | 0.00 | 31 | 1010.3 |
| 20260504150506 | 65 | 319 | 3.0 | 6.0 | 0.00 | 0.00 | 0.00 | 42 | 1010.7 |
| 20260504140506 | 60 | 298 | 0.0 | 1.0 | 0.00 | 0.00 | 0.00 | 60 | 1010.5 |
| 20260504130506 | 55 | 0 | 0.0 | 0.0 | 0.00 | 0.00 | 0.00 | 62 | 1010.0 |
| 20260504110506 | 58 | 200 | 0.0 | 1.0 | 0.00 | 0.00 | 0.00 | 57 | 1010.0 |
| 20260504100505 | 55 | 276 | 0.0 | 1.0 | 0.00 | 0.00 | 0.00 | 68 | 1009.9 |
| 20260504082005 | 59 | 297 | 0.0 | 1.0 | 0.00 | 0.00 | 0.00 | 62 | 1009.7 |
| 20260504081506 | 60 | 298 | 0.0 | 1.0 | 0.00 | 0.00 | 0.00 | 62 | 1009.7 |
| 20260504050506 | 67 | 0 | 0.0 | 0.0 | 0.00 | 0.00 | 0.00 | 52 | 1010.0 |
| 20260504050005 | 67 | 0 | 0.0 | 0.0 | 0.00 | 0.00 | 0.00 | 51 | 1010.0 |
| 20260504045504 | 68 | 257 | 0.0 | 1.0 | 0.00 | 0.00 | 0.00 | 51 | 1009.9 |
| 20260504045005 | 68 | 258 | 0.0 | 1.0 | 0.00 | 0.00 | 0.00 | 51 | 1009.9 |
| 20260504044505 | 69 | 261 | 0.0 | 1.0 | 0.00 | 0.00 | 0.00 | 50 | 1009.9 |
| 20260504044004 | 69 | 265 | 0.0 | 1.0 | 0.00 | 0.00 | 0.00 | 49 | 1009.8 |
| 20260504043505 | 69 | 261 | 0.0 | 1.0 | 0.00 | 0.00 | 0.00 | 49 | 1009.8 |
| 20260504043005 | 70 | 254 | 0.0 | 1.0 | 0.00 | 0.00 | 0.00 | 49 | 1009.7 |
| 20260504042505 | 70 | 251 | 0.0 | 1.0 | 0.00 | 0.00 | 0.00 | 48 | 1009.7 |
| 20260504042005 | 71 | 0 | 0.0 | 0.0 | 0.00 | 0.00 | 0.00 | 47 | 1009.6 |
| 20260504041005 | 72 | 0 | 0.0 | 0.0 | 0.00 | 0.00 | 0.00 | 44 | 1009.4 |
| 20260504040505 | 72 | 0 | 0.0 | 0.0 | 0.00 | 0.00 | 0.00 | 43 | 1009.4 |
| 20260504040005 | 72 | 0 | 0.0 | 0.0 | 0.00 | 0.00 | 0.00 | 41 | 1009.4 |
| 20260504035005 | 74 | 0 | 0.0 | 0.0 | 0.00 | 0.00 | 0.00 | 40 | 1009.3 |
| 20260504034506 | 74 | 229 | 0.0 | 1.0 | 0.00 | 0.00 | 0.00 | 39 | 1009.2 |
| 20260504033504 | 75 | 0 | 0.0 | 0.0 | 0.00 | 0.00 | 0.00 | 38 | 1009.0 |
| 20260504033007 | 75 | 0 | 0.0 | 0.0 | 0.00 | 0.00 | 0.00 | 38 | 1009.1 |
| 20260504032506 | 75 | 0 | 0.0 | 0.0 | 0.00 | 0.00 | 0.00 | 37 | 1008.9 |
| 20260504032005 | 76 | 0 | 0.0 | 0.0 | 0.00 | 0.00 | 0.00 | 37 | 1008.9 |
| 20260504031505 | 76 | 0 | 0.0 | 0.0 | 0.00 | 0.00 | 0.00 | 37 | 1008.9 |
| 20260504031005 | 77 | 0 | 0.0 | 0.0 | 0.00 | 0.00 | 0.00 | 36 | 1008.9 |
| 20260504030505 | 78 | 193 | 0.0 | 1.0 | 0.00 | 0.00 | 0.00 | 34 | 1008.9 |
| 20260504030005 | 78 | 193 | 0.0 | 1.0 | 0.00 | 0.00 | 0.00 | 33 | 1008.9 |
| 20260504025505 | 79 | 0 | 0.0 | 0.0 | 0.00 | 0.00 | 0.00 | 33 | 1008.8 |
| 20260504025005 | 80 | 211 | 0.0 | 2.0 | 0.00 | 0.00 | 0.00 | 32 | 1008.8 |
| 20260504024505 | 80 | 209 | 0.0 | 2.0 | 0.00 | 0.00 | 0.00 | 31 | 1008.8 |
| 20260504023505 | 81 | 212 | 0.0 | 1.0 | 0.00 | 0.00 | 0.00 | 31 | 1008.8 |
| 20260504023005 | 82 | 210 | 0.0 | 2.0 | 0.00 | 0.00 | 0.00 | 30 | 1008.7 |
| 20260504022504 | 82 | 210 | 1.0 | 3.0 | 0.00 | 0.00 | 0.00 | 29 | 1008.7 |
| 20260504022005 | 83 | 208 | 1.0 | 4.0 | 0.00 | 0.00 | 0.00 | 28 | 1008.8 |
| 20260504021505 | 84 | 204 | 1.0 | 4.0 | 0.00 | 0.00 | 0.00 | 27 | 1008.8 |
| 20260504021005 | 84 | 202 | 2.0 | 4.0 | 0.00 | 0.00 | 0.00 | 27 | 1008.8 |
| 20260504020505 | 84 | 203 | 2.0 | 4.0 | 0.00 | 0.00 | 0.00 | 26 | 1008.9 |
| 20260504020006 | 84 | 203 | 2.0 | 4.0 | 0.00 | 0.00 | 0.00 | 26 | 1008.8 |
| 20260504015005 | 83 | 201 | 3.0 | 7.0 | 0.00 | 0.00 | 0.00 | 27 | 1008.8 |
| 20260504014506 | 83 | 202 | 3.0 | 7.0 | 0.00 | 0.00 | 0.00 | 27 | 1009.0 |
| 20260504013005 | 84 | 202 | 1.0 | 4.0 | 0.00 | 0.00 | 0.00 | 26 | 1009.0 |
| 20260504012504 | 84 | 209 | 0.0 | 3.0 | 0.00 | 0.00 | 0.00 | 25 | 1009.0 |
| 20260504012005 | 84 | 204 | 0.0 | 3.0 | 0.00 | 0.00 | 0.00 | 26 | 1009.2 |
| 20260504011505 | 84 | 210 | 1.0 | 4.0 | 0.00 | 0.00 | 0.00 | 26 | 1009.2 |
| 20260504011005 | 84 | 209 | 1.0 | 4.0 | 0.00 | 0.00 | 0.00 | 25 | 1009.3 |
| 20260504010505 | 84 | 204 | 1.0 | 3.0 | 0.00 | 0.00 | 0.00 | 24 | 1009.3 |
| 20260504010005 | 84 | 204 | 1.0 | 4.0 | 0.00 | 0.00 | 0.00 | 24 | 1009.4 |
| 20260504005505 | 84 | 203 | 1.0 | 5.0 | 0.00 | 0.00 | 0.00 | 24 | 1009.5 |
| 20260504005004 | 84 | 200 | 1.0 | 5.0 | 0.00 | 0.00 | 0.00 | 24 | 1009.6 |
| 20260504004505 | 84 | 205 | 1.0 | 5.0 | 0.00 | 0.00 | 0.00 | 24 | 1009.7 |